Weather History for Columbia, MO

Change the Weather History Date:

Monday, May 20, 2013

  Actual Average Record
Temperature  
Mean Temperature 70 °F 65 °F  
Max Temperature 78 °F 76 °F 92 °F (1902)
Min Temperature 61 °F 55 °F 36 °F (1894)
Degree Days  
Heating Degree Days 0 3  
Month to date heating degree days 120 87  
Since 1 July heating degree days 4881 4990  
Cooling Degree Days 5 3  
Month to date cooling degree days 65 37  
Year to date cooling degree days 87 62  
Growing Degree Days 20 (Base 50)    
Moisture  
Dew Point 62 °F    
Average Humidity 77    
Maximum Humidity 93    
Minimum Humidity 60    
Precipitation  
Precipitation 1.48 in 0.15 in 1.48 in (2013)
Month to date precipitation 2.90 3.29  
Year to date precipitation 19.82 14.86  
Snow  
Snow 0.00 in 0.00 in 0.00 in (2012)
Month to date snowfall T 0.0  
Since 1 July snowfall 35.0 18.0  
Snow Depth 0.00 in    
Sea Level Pressure  
Sea Level Pressure 29.76 in    
Wind  
Wind Speed 13 mph (SSW)    
Max Wind Speed 37 mph    
Max Gust Speed 50 mph    
Visibility 8 miles    
Events Rain , Thunderstorm    
T = Trace of Precipitation, MM = Missing Value Source: NWS Daily Summary

Daily Weather History Graph

Daily Weather History Graph

Search for Another Location

Airport:

Trip Planner

Search our weather history database for the weather conditions in past years. The results will help you decide how hot, cold, wet, or windy it might be!

Date:

Astronomy

May. 20, 2013 Rise Set
Actual Time 5:52 AM CDT 8:19 PM CDT
Civil Twilight 5:21 AM CDT 8:49 PM CDT
Nautical Twilight 4:44 AM CDT 9:27 PM CDT
Astronomical Twilight 4:02 AM CDT 10:09 PM CDT
Moon 3:29 PM CDT (5/20) 2:44 AM CDT (5/20)
Length of Visible Light 15h 27m
Length of Day
14h 26m
Waxing Gibbous, 75% of the Moon is Illuminated
May 20
Waxing Gibbous
May 24
Full
May 31
Last Quarter
Jun 8
New
Jun 16
First Quarter

Hourly Weather History & Observations

Time (CDT) Temp. Dew Point Humidity Pressure Visibility Wind Dir Wind Speed Gust Speed Precip Events Conditions
12:38 AM 68.0 °F 57.9 °F 70% 29.81 in 10.0 mi NW 19.6 mph 38.0 mph N/A   Overcast
12:54 AM 66.0 °F 57.9 °F 75% 29.77 in 10.0 mi NW 13.8 mph 25.3 mph N/A   Overcast
1:26 AM 64.0 °F 59.0 °F 84% 29.80 in 10.0 mi NW 10.4 mph - N/A Thunderstorm Overcast
1:54 AM 62.1 °F 60.1 °F 93% 29.77 in 6.0 mi WNW 6.9 mph - 0.09 in Rain , Thunderstorm Light Rain
2:07 AM 62.1 °F 60.1 °F 93% 29.84 in 10.0 mi WSW 10.4 mph - 0.00 in Rain , Thunderstorm Light Thunderstorms and Rain
2:37 AM 62.1 °F 59.0 °F 90% 29.82 in 9.0 mi SW 8.1 mph - 0.05 in Rain , Thunderstorm Light Rain
2:54 AM 62.6 °F 59.0 °F 88% 29.82 in 6.0 mi SW 5.8 mph - N/A Rain , Thunderstorm Rain
3:02 AM 62.1 °F 59.0 °F 90% 29.79 in 6.0 mi West 6.9 mph - 0.02 in Rain , Thunderstorm Thunderstorms and Rain
3:17 AM 62.1 °F 60.1 °F 93% 29.80 in 4.0 mi WSW 4.6 mph - 0.07 in Rain Rain
3:29 AM 61.0 °F 59.0 °F 93% 29.77 in 3.0 mi SSE 5.8 mph - 0.10 in Rain , Thunderstorm Light Thunderstorms and Rain
3:44 AM 61.0 °F 60.1 °F 97% 29.77 in 7.0 mi SSE 4.6 mph - 0.13 in Rain Light Rain
3:54 AM 62.1 °F 59.0 °F 90% 29.74 in 6.0 mi Calm Calm - 0.15 in Rain Light Rain
4:54 AM 61.0 °F 60.1 °F 97% 29.77 in 10.0 mi SSE 13.8 mph - 0.03 in Rain Light Rain
5:54 AM 62.1 °F 59.0 °F 90% 29.83 in 7.0 mi SSE 15.0 mph - 0.06 in Rain Light Rain
6:54 AM 61.0 °F 59.0 °F 93% 29.75 in 10.0 mi SSE 13.8 mph - 0.00 in   Mostly Cloudy
7:54 AM 62.1 °F 60.1 °F 93% 29.79 in 10.0 mi South 13.8 mph - 0.00 in   Overcast
8:54 AM 64.4 °F 60.8 °F 88% 29.81 in 10.0 mi South 15.0 mph - N/A Rain Light Rain
9:54 AM 69.1 °F 62.1 °F 78% 29.75 in 10.0 mi South 20.7 mph - 0.00 in   Clear
10:54 AM 72.0 °F 63.0 °F 73% 29.79 in 10.0 mi South 17.3 mph - N/A   Mostly Cloudy
11:42 AM 71.1 °F 62.1 °F 73% 29.89 in 10.0 mi WNW 16.1 mph 26.5 mph N/A   Mostly Cloudy
11:54 AM 71.1 °F 62.1 °F 73% 29.87 in 10.0 mi WNW 10.4 mph - N/A   Mostly Cloudy
12:54 PM 75.2 °F 62.6 °F 65% 29.82 in 10.0 mi SE 11.5 mph - N/A   Clear
1:54 PM 77.0 °F 63.0 °F 62% 29.79 in 10.0 mi SSE 19.6 mph 26.5 mph N/A   Partly Cloudy
2:54 PM 75.0 °F 64.9 °F 71% 29.78 in 10.0 mi SSE 17.3 mph - N/A   Overcast
3:54 PM 75.9 °F 66.9 °F 74% 29.73 in 10.0 mi SSE 16.1 mph - N/A   Mostly Cloudy
4:05 PM 75.0 °F 66.0 °F 73% 29.76 in 10.0 mi South 11.5 mph - N/A   Overcast
4:46 PM 75.0 °F 68.0 °F 79% 29.74 in 10.0 mi SSE 10.4 mph - N/A   Overcast
4:54 PM 75.0 °F 68.0 °F 79% 29.72 in 10.0 mi SSE 9.2 mph - N/A   Overcast
5:21 PM 73.9 °F 68.0 °F 82% 29.71 in 10.0 mi SSE 12.7 mph - 0.00 in   Overcast
5:54 PM 73.9 °F 68.0 °F 82% 29.69 in 10.0 mi South 15.0 mph - 0.00 in   Mostly Cloudy
6:01 PM 73.9 °F 68.0 °F 82% 29.70 in 10.0 mi South 13.8 mph - N/A   Mostly Cloudy
6:21 PM 73.0 °F 68.0 °F 84% 29.71 in 4.0 mi South 9.2 mph - 0.02 in Rain , Thunderstorm Thunderstorms and Rain
6:54 PM 70.0 °F 66.0 °F 87% 29.71 in 8.0 mi SSW 10.4 mph - 0.08 in Rain , Thunderstorm Light Thunderstorms and Rain
7:03 PM 69.1 °F 66.0 °F 90% 29.73 in 8.0 mi South 8.1 mph - 0.00 in Rain Light Rain
7:41 PM 66.0 °F 62.1 °F 87% 29.76 in 10.0 mi NW 13.8 mph 23.0 mph 0.00 in Rain , Thunderstorm Light Thunderstorms and Rain
7:51 PM 64.4 °F 62.6 °F 94% 29.76 in 1.8 mi West 11.5 mph 33.4 mph 0.14 in Rain , Thunderstorm Heavy Thunderstorms and Rain
7:52 PM 64.0 °F 62.1 °F 93% 29.76 in 1.8 mi West 12.7 mph 33.4 mph 0.15 in Rain , Thunderstorm Heavy Thunderstorms and Rain
7:59 PM 64.0 °F 62.1 °F 93% 29.75 in 1.5 mi West 6.9 mph 17.3 mph 0.15 in Rain , Thunderstorm Heavy Thunderstorms and Rain
8:23 PM 64.0 °F 61.0 °F 90% 29.81 in 3.0 mi SW 26.5 mph 31.1 mph 0.55 in Rain , Thunderstorm Light Thunderstorms and Rain
8:26 PM 63.0 °F 61.0 °F 93% 29.80 in 1.8 mi SW 35.7 mph 50.6 mph 0.55 in Rain , Thunderstorm Thunderstorms and Rain
8:35 PM 63.0 °F 60.1 °F 90% 29.73 in 1.2 mi WSW 16.1 mph 44.9 mph 0.83 in Rain , Thunderstorm Thunderstorms and Rain
8:38 PM 63.0 °F 60.1 °F 90% 29.72 in 4.0 mi West 8.1 mph 31.1 mph 0.84 in Rain , Thunderstorm Thunderstorms and Rain
8:54 PM 62.6 °F 60.8 °F 94% 29.68 in 10.0 mi ESE 13.8 mph - N/A Rain , Thunderstorm Light Rain
8:59 PM 62.1 °F 61.0 °F 96% 29.68 in 10.0 mi SE 12.7 mph - 0.00 in Rain Light Rain
9:54 PM 63.0 °F 63.0 °F 100% 29.71 in 10.0 mi South 15.0 mph - 0.00 in   Partly Cloudy
10:54 PM 64.0 °F 61.0 °F 90% 29.71 in 10.0 mi South 12.7 mph - N/A   Clear
11:54 PM 64.0 °F 61.0 °F 90% 29.72 in 10.0 mi South 13.8 mph - N/A   Clear